Date String (YYYY-MM-DD hh:mm:ss) UTC,Instrument flags,absolute air pressure of the measurement (hPa),sample flow rate (lpm),inlet stack bypass flow (lpm),air temperature of the measurement (°C),ambient temperature measured by the external sensor (°C),aerosol sample conditioner tube jacket temperature (°C),OPC LED temperature (°C),internal box temperature (°C),relative humidity of the measurement (%),span deviation,mass concentration of particles derived from Lorenz-Mie calculation of OPC scattering (μg/m³),mass concentration of particles derived from Lorenz-Mie calculation of OPC scattering (μg/m³),mass concentration of particles derived from Lorenz-Mie calculation of OPC scattering (μg/m³)
DateTimeUTC,F1_M11,P_M11,Q1_M11,Q2_M11,T1_M11,T2_M11,T3_M11,T4_M11,T5_M11,U1_M11,ZSPAN_M11,X0_M11,X2_M11,X1_M11
2023-10-08 16:00:00,SystemResetWarning,0834.3,5.00,000.00,029.3,028.2,000.0,037.6,031.0,14.1,0000.0,0007.95,0003.19,0002.56
2023-10-08 16:01:00,SystemResetWarning,0834.3,5.00,000.00,029.4,028.2,000.0,037.6,031.0,14.2,0000.0,0008.60,0003.18,0002.56
2023-10-08 16:02:00,SystemResetWarning,0834.4,5.00,000.00,029.4,028.3,000.0,037.7,031.0,14.3,0000.0,0008.52,0003.18,0002.57
2023-10-08 16:03:00,SystemResetWarning,0834.4,5.01,000.00,029.4,028.3,000.0,037.7,031.0,14.0,0000.0,0008.37,0003.19,0002.56
2023-10-08 16:04:00,SystemResetWarning,0834.4,5.01,000.00,029.4,028.3,000.0,037.7,031.0,14.2,0000.0,0008.95,0003.18,0002.57
2023-10-08 16:05:00,SystemResetWarning,0834.4,5.00,000.00,029.4,028.3,000.0,037.7,031.1,14.1,0000.0,0009.58,0003.18,0002.57
2023-10-08 16:06:00,SystemResetWarning,0834.4,4.99,000.00,029.5,028.4,000.0,037.8,031.1,14.0,0000.0,0009.68,0003.20,0002.56
2023-10-08 16:07:00,SystemResetWarning,0834.4,4.98,000.00,029.5,027.7,000.0,037.7,031.2,13.8,0000.0,0009.63,0003.20,0002.55
2023-10-08 16:08:00,SystemResetWarning,0834.3,5.00,000.00,029.4,025.9,000.0,037.7,030.9,14.3,0000.0,0009.12,0003.19,0002.54
2023-10-08 16:09:00,SystemResetWarning,0834.7,5.00,000.00,029.3,024.9,000.0,037.6,030.7,14.4,0000.0,0009.26,0003.20,0002.54
2023-10-08 16:10:00,SystemResetWarning,0834.7,5.01,000.00,029.2,025.0,000.0,037.6,030.6,14.7,0000.0,0009.64,0003.21,0002.54
2023-10-08 16:11:00,SystemResetWarning,0834.4,5.01,000.00,029.1,025.4,000.0,037.6,030.4,14.4,0000.0,0009.63,0003.19,0002.54
2023-10-08 16:12:00,SystemResetWarning,0834.2,5.00,000.00,029.0,025.7,000.0,037.6,030.4,14.1,0000.0,0008.79,0003.17,0002.53
2023-10-08 16:13:00,SystemResetWarning,0834.4,5.00,000.00,029.0,026.1,000.0,037.6,030.4,14.1,0000.0,0008.95,0003.14,0002.52
2023-10-08 16:14:00,SystemResetWarning,0834.4,5.00,000.00,028.9,026.4,000.0,037.5,030.4,14.1,0000.0,0008.81,0003.13,0002.51
2023-10-08 16:15:00,SystemResetWarning,0834.4,5.00,000.00,028.9,026.7,000.0,037.5,030.5,14.3,0000.0,0007.96,0003.12,0002.50
2023-10-08 16:16:00,SystemResetWarning,0834.3,5.00,000.00,028.9,026.9,000.0,037.5,030.5,13.9,0000.0,0007.01,0003.10,0002.50
2023-10-08 16:17:00,SystemResetWarning,0834.4,5.00,000.00,028.9,027.1,000.0,037.5,030.5,14.0,0000.0,0007.04,0003.11,0002.50
2023-10-08 16:18:00,SystemResetWarning,0834.3,4.99,000.00,029.0,027.3,000.0,037.5,030.6,14.6,0000.0,0007.18,0003.11,0002.49
2023-10-08 16:19:00,SystemResetWarning,0834.5,5.00,000.00,029.0,027.4,000.0,037.5,030.6,14.9,0000.0,0007.38,0003.10,0002.49
2023-10-08 16:20:00,SystemResetWarning,0834.4,5.00,000.00,029.0,027.6,000.0,037.5,030.6,15.1,0000.0,0007.03,0003.11,0002.49
2023-10-08 16:21:00,SystemResetWarning,0834.3,5.00,000.00,029.0,027.6,000.0,037.5,030.7,14.9,0000.0,0006.80,0003.07,0002.50
2023-10-08 16:22:00,SystemResetWarning,0834.4,5.00,000.00,029.0,027.7,000.0,037.5,030.7,15.0,0000.0,0006.95,0003.10,0002.51
2023-10-08 16:23:00,SystemResetWarning,0834.2,5.00,000.00,029.1,027.8,000.0,037.5,030.7,15.1,0000.0,0007.11,0003.13,0002.53
2023-10-08 16:24:00,SystemResetWarning,0834.3,5.00,000.00,029.1,027.9,000.0,037.5,030.8,14.6,0000.0,0007.32,0003.17,0002.56
2023-10-08 16:25:00,SystemResetWarning,0834.3,5.00,000.00,029.1,028.0,000.0,037.5,030.8,14.3,0000.0,0007.58,0003.19,0002.57
2023-10-08 16:26:00,SystemResetWarning,0834.2,5.00,000.00,029.2,028.0,000.0,037.6,030.8,14.6,0000.0,0007.57,0003.20,0002.59
2023-10-08 16:27:00,SystemResetWarning,0834.2,5.00,000.00,029.2,028.1,000.0,037.6,030.9,14.8,0000.0,0007.58,0003.21,0002.61
2023-10-08 16:28:00,SystemResetWarning,0834.2,4.99,000.00,029.2,028.1,000.0,037.6,030.9,14.8,0000.0,0007.49,0003.19,0002.61
2023-10-08 16:29:00,SystemResetWarning,0834.2,5.00,000.00,029.3,028.1,000.0,037.6,030.9,14.6,0000.0,0007.39,0003.16,0002.61
2023-10-08 16:30:00,SystemResetWarning,0834.2,5.00,000.00,029.3,026.9,000.0,037.6,030.9,14.5,0000.0,0007.04,0003.15,0002.61
2023-10-08 16:31:00,SystemResetWarning,0834.1,5.01,000.00,029.2,025.4,000.0,037.5,030.7,14.3,0000.0,0006.59,0003.09,0002.60
2023-10-08 16:32:00,SystemResetWarning,0834.1,5.01,000.00,029.1,025.2,000.0,037.5,030.6,14.1,0000.0,0006.24,0003.10,0002.59
2023-10-08 16:33:00,SystemResetWarning,0834.1,5.01,000.00,029.0,025.4,000.0,037.5,030.4,14.0,0000.0,0006.09,0003.06,0002.58
2023-10-08 16:34:00,SystemResetWarning,0834.1,4.99,000.00,028.9,025.8,000.0,037.5,030.4,14.8,0000.0,0007.13,0003.01,0002.56
2023-10-08 16:35:00,SystemResetWarning,0834.1,5.00,000.00,028.9,026.1,000.0,037.5,030.4,14.8,0000.0,0007.13,0002.96,0002.54
2023-10-08 16:36:00,SystemResetWarning,0834.1,5.01,000.00,028.9,026.4,000.0,037.5,030.4,14.9,0000.0,0006.10,0002.95,0002.54
2023-10-08 16:37:00,SystemResetWarning,0834.1,5.00,000.00,028.9,026.7,000.0,037.5,030.4,14.1,0000.0,0006.17,0002.97,0002.54
2023-10-08 16:38:00,SystemResetWarning,0834.1,5.00,000.00,028.9,026.9,000.0,037.4,030.5,14.5,0000.0,0006.52,0002.97,0002.52
2023-10-08 16:39:00,SystemResetWarning,0834.1,4.99,000.00,028.9,027.2,000.0,037.4,030.5,14.2,0000.0,0007.57,0003.07,0002.53
2023-10-08 16:40:00,SystemResetWarning,0834.1,5.00,000.00,028.9,027.3,000.0,037.4,030.6,13.8,0000.0,0007.65,0003.11,0002.54
2023-10-08 16:41:00,SystemResetWarning,0834.1,5.00,000.00,029.0,027.5,000.0,037.4,030.6,14.0,0000.0,0007.87,0003.13,0002.54
2023-10-08 16:42:00,SystemResetWarning,0834.1,5.00,000.00,029.0,027.6,000.0,037.4,030.7,14.2,0000.0,0008.12,0003.14,0002.55
2023-10-08 16:43:00,SystemResetWarning,0834.1,5.00,000.00,029.0,027.7,000.0,037.5,030.7,14.3,0000.0,0008.69,0003.14,0002.56
2023-10-08 16:44:00,SystemResetWarning,0834.1,5.00,000.00,029.0,027.8,000.0,037.5,030.7,14.4,0000.0,0008.94,0003.15,0002.56
2023-10-08 16:45:00,SystemResetWarning,0834.1,5.00,000.00,029.1,027.9,000.0,037.5,030.8,14.5,0000.0,0008.87,0003.15,0002.58
2023-10-08 16:46:00,SystemResetWarning,0834.1,5.00,000.00,029.1,027.9,000.0,037.5,030.8,14.6,0000.0,0008.77,0003.15,0002.58
2023-10-08 16:47:00,SystemResetWarning,0834.1,4.98,000.00,029.1,026.7,000.0,037.5,030.8,14.6,0000.0,0009.60,0003.12,0002.57
2023-10-08 16:48:00,SystemResetWarning,0834.1,5.01,000.00,029.0,025.1,000.0,037.4,030.6,14.6,0000.0,0009.98,0003.08,0002.56
2023-10-08 16:49:00,SystemResetWarning,0834.0,5.01,000.00,029.0,024.9,000.0,037.3,030.5,14.5,0000.0,0010.98,0003.03,0002.55
2023-10-08 16:50:00,SystemResetWarning,0834.0,5.00,000.00,028.9,025.2,000.0,037.3,030.3,14.4,0000.0,0010.22,0002.96,0002.52
2023-10-08 16:51:00,SystemResetWarning,0834.0,5.00,000.00,028.8,025.6,000.0,037.3,030.2,14.4,0000.0,0010.30,0002.91,0002.51
2023-10-08 16:52:00,SystemResetWarning,0834.0,5.00,000.00,028.8,025.9,000.0,037.3,030.3,14.3,0000.0,0010.36,0002.98,0002.49
2023-10-08 16:53:00,SystemResetWarning,0834.0,5.00,000.00,028.8,026.3,000.0,037.3,030.3,14.5,0000.0,0010.26,0003.03,0002.48
2023-10-08 16:54:00,SystemResetWarning,0834.0,5.00,000.00,028.8,026.6,000.0,037.3,030.4,14.1,0000.0,0009.82,0003.02,0002.46
2023-10-08 16:55:00,SystemResetWarning,0833.9,5.00,000.00,028.8,025.1,000.0,036.8,030.4,13.5,0000.0,0009.51,0003.06,0002.47
2023-10-08 16:56:00,SystemResetWarning,0833.9,4.99,000.00,028.8,027.1,000.0,037.3,030.5,14.2,0000.0,0009.23,0003.09,0002.45
2023-10-08 16:57:00,SystemResetWarning,0833.9,5.00,000.00,028.8,027.2,000.0,037.3,030.5,13.7,0000.0,0008.93,0003.09,0002.45
2023-10-08 16:58:00,SystemResetWarning,0834.0,5.00,000.00,028.8,027.4,000.0,037.3,030.5,14.0,0000.0,0008.17,0003.12,0002.46
2023-10-08 16:59:00,SystemResetWarning,0834.0,5.00,000.00,028.9,027.5,000.0,037.3,030.6,13.6,0000.0,0008.34,0003.13,0002.45
